User: anonymous   Login
Location: Tucson
(32.2217°N, 110.9265°W)
Time: 15:59:31
(UTC-07:00)
Language:

Gurwin Techsat 1B - Orbit

View from above orbital plane
View from above orbital plane
View from above satellite
View from above satellite

Ground track
Ground track

The orbit data is extracted from the following two-line orbital elements,

1 25397U 98043D   21340.44739524  .00000000  00000-0  19678-4 0  9993
2 25397  98.7931 285.6820 0000815   2.5762 357.5421 14.23723657215962
Epoch (UTC): 06 December 2021 10:44:14
Eccentricity: 0.0000815
inclination: 98.7931°
perigee height: 812 km
apogee height: 813 km
right ascension of ascending node: 285.6820°
argument of perigee: 2.5762°
revolutions per day: 14.23723657
mean anomaly at epoch: 357.5421°
orbit number at epoch: 21596

The dashed part of the orbit path shows where the satellite is in the earth's shadow,  

DLR